Flag for U.S.A. Weather past 2 weeks in Clovis, New Mexico, U.S.A.

Now
75 °F

Sunny.


Feels Like: 78 °F
Forecast: 64 / 88 °F
Wind: 7 mph from Southwest

Location: Cannon Air Force Base / Clovis

Current Time: Aug 27, 2015 at 8:25:48 PM

Latest Report: Aug 27, 2015 at 7:58 PM


Visibility: 10 mi

Pressure: 29.88 "Hg (25.73 "Hg at 1300m altitude)

Humidity: 57%

Dew point: 59 °F

Location of ClovisLocation

Historic Weather in Clovis — Graph

°F

Clovis temperature yesterday

Maximum temperature yesterday: 91 °F (at 3:58 PM)
Minimum temperature yesterday: 66 °F (at 2:58 AM)
Average temperature yesterday: 78 °F

Past Weeks' High & Low Weather Summary

 TemperatureHumidityPressure
High98 °F (Aug 22, 3:58 PM)100% (Aug 21, 3:58 AM)30.25 "Hg (Aug 21, 3:58 AM)
Low54 °F (Aug 20, 1:58 AM)14% (Aug 22, 3:58 PM)29.61 "Hg (Aug 18, 5:58 PM)
Average76 °F58%29.95 "Hg
* Reported Aug 12 6:58 PM — Aug 27 6:58 PM, Clovis, Weather by CustomWeather, © 2015

Note: Actual official high and low records may vary slightly from our data, if they occured in-between our weather recording intervals... More about our weather records

Advertising

Clovis weather history for previous 24 hours

 ConditionsComfort  
Time TempWeatherWind HumidityBarometerVisibility
6:58 PM
Thu, Aug 27
81 °FSunny.8 mph43%29.89 "Hg10 mi
5:58 PM78 °FSunny.9 mph50%29.92 "Hg10 mi
4:58 PM79 °FSunny.22 mph46%29.93 "Hg10 mi
3:58 PM87 °FPartly sunny.17 mph31%29.91 "Hg10 mi
2:57 PM92 °FPartly sunny.17 mph25%29.90 "Hg10 mi
1:58 PM90 °FScattered clouds.8 mph28%29.94 "Hg10 mi
12:58 PM90 °FPassing clouds.12 mph28%29.96 "Hg10 mi
11:58 AM89 °FSunny.18 mph30%29.99 "Hg10 mi
10:58 AM87 °FBroken clouds.17 mph34%30.01 "Hg10 mi
9:58 AM81 °FPassing clouds.12 mph45%30.04 "Hg10 mi
8:58 AM77 °FPassing clouds.10 mph51%30.05 "Hg10 mi
8:54 AM77 °FPartly sunny.10 mph51%30.23 "Hg10 mi
7:58 AM76 °FSunny.9 mph52%30.04 "Hg10 mi
6:58 AM69 °FClear.1 mph65%30.03 "Hg10 mi
5:58 AM67 °FPassing clouds.6 mph67%30.03 "Hg10 mi
4:58 AM70 °FOvercast.7 mph62%30.03 "Hg10 mi
3:58 AM71 °FPassing clouds.9 mph58%30.05 "Hg10 mi
2:58 AM69 °FClear.5 mph62%30.04 "Hg10 mi
1:58 AM68 °FClear.5 mph65%30.05 "Hg10 mi
12:58 AM69 °FClear.3 mph64%30.06 "Hg10 mi
11:58 PM
Wed, Aug 26
72 °FPassing clouds.7 mph55%30.06 "Hg10 mi
10:58 PM73 °FPassing clouds.8 mph56%30.06 "Hg10 mi
9:58 PM75 °FClear.10 mph48%30.08 "Hg10 mi
8:58 PM78 °FClear.12 mph38%30.05 "Hg10 mi
Weather by CustomWeather, © 2015

See weather overviewHow to use our weather pages